Wind_Speed
10 9 10 9 9 9 8 8 7 7 7 7 7 7 7 8 8 9 10 11 11 12 13 13 14 14 14 14 15 15 15 16 16 16 17 17 18 18 19 20 21 22 23
11 10 10 10 10 10 9 9 9 9 9 9 9 8 9 9 10 11 12 13 13 14 14 15 16 16 16 16 17 17 17 18 18 18 19 19 20 20 21 22 23 24 25
11 10 11 11 11 11 11 11 11 10 10 10 10 10 10 11 12 12 13 14 15 16 16 17 17 17 17 18 18 19 19 19 20 20 21 21 22 23 24 24 25 26 27
11 11 12 12 12 12 12 12 12 11 11 11 11 11 12 13 14 15 16 16 17 18 18 18 19 19 19 20 20 20 21 21 22 23 23 24 25 26 26 27 28 28 29
12 12 12 12 12 13 13 13 12 12 12 12 12 13 14 14 16 16 17 18 19 19 19 20 20 21 21 22 22 23 23 24 24 25 26 27 27 28 29 29 30 30 31
12 13 13 13 13 13 13 12 12 13 13 14 14 15 16 17 17 18 19 20 21 21 21 21 22 23 23 24 25 25 26 27 27 28 28 29 29 30 30 31 31 32 32
13 13 13 13 13 13 13 13 13 13 14 15 16 17 17 18 19 20 21 22 22 22 23 23 24 24 25 26 27 28 28 29 30 30 30 31 31 32 32 33 33 33 34
14 14 14 14 14 13 12 13 13 14 15 16 17 18 19 20 21 22 22 23 24 24 24 25 26 27 27 28 29 30 30 31 31 32 32 33 33 34 35 35 36 36 37
14 14 14 14 13 13 13 13 14 15 16 17 18 19 20 21 22 23 24 25 26 26 27 28 29 30 31 31 32 32 33 33 34 34 35 36 37 37 37 38 38 39 39
13 13 13 13 13 14 14 15 16 17 18 19 20 21 22 23 24 25 26 27 28 29 30 31 31 33 34 35 35 35 36 36 37 37 38 39 39 40 40 40 41 41 42
15 15 15 15 15 16 16 17 18 18 19 20 21 22 24 25 26 27 29 30 31 32 32 33 34 35 36 37 38 38 39 39 40 40 41 42 42 43 43 44 44 45 45
16 16 16 17 17 17 17 18 19 20 21 22 23 24 26 27 29 30 31 33 34 34 35 36 37 38 39 39 40 40 41 41 42 43 44 44 45 45 45 46 47 48 49
17 17 17 18 18 18 19 20 21 22 23 24 26 28 29 30 31 33 34 35 36 36 37 38 38 39 40 41 41 42 43 43 44 45 46 47 48 48 48 48 49 50 50
18 18 19 19 19 20 20 21 23 24 26 27 28 30 31 33 34 36 36 37 37 37 38 39 40 41 42 43 44 44 45 46 47 48 48 49 50 50 51 51 51 52 52
20 20 20 20 21 21 22 23 24 25 27 29 31 32 33 35 36 37 37 38 38 39 40 41 43 44 45 45 46 46 47 48 49 50 50 51 51 52 52 53 54 54 54
21 21 21 22 22 23 24 26 27 28 30 31 33 34 35 36 37 38 38 39 40 42 43 44 45 46 47 47 47 48 49 50 51 52 52 52 53 53 53 54 55 55 55
22 23 23 24 25 26 27 28 29 31 32 33 34 35 36 38 39 40 41 42 43 44 45 46 46 47 48 49 49 50 50 51 52 52 53 53 53 53 54 54 55 55 56
23 24 25 26 27 28 29 30 31 33 34 35 36 37 38 39 40 41 43 44 45 46 47 47 48 49 50 50 50 51 51 52 52 52 53 53 53 54 54 54 55 55 56
24 25 26 28 29 30 31 32 34 35 36 38 38 39 40 41 42 43 44 45 46 47 48 48 49 50 50 51 51 51 52 52 52 52 52 53 53 53 53 54 55 55 55
26 27 29 30 31 32 33 35 36 37 38 39 40 40 41 42 42 43 45 46 47 48 49 50 51 51 51 51 51 51 51 52 52 52 52 53 53 53 54 55 55 55 54
29 30 31 32 33 35 36 37 38 39 40 40 41 42 42 43 44 45 46 48 48 49 50 51 51 51 51 51 51 51 52 52 52 52 52 52 53 53 53 54 54 53 52
31 32 33 35 36 37 38 39 39 40 41 41 42 42 43 44 45 47 48 49 50 50 51 51 51 51 51 51 51 51 51 51 51 51 52 52 52 52 52 52 52 51 49
33 34 35 36 37 38 39 39 40 41 42 42 43 43 44 46 47 48 49 50 50 51 51 51 51 51 51 51 51 51 51 51 51 51 51 51 52 52 51 51 49 48 47
34 35 36 37 38 39 39 40 42 42 43 43 44 45 46 47 49 50 50 50 51 51 51 51 51 51 51 50 50 50 50 51 51 51 51 51 51 50 49 48 46 45 45
36 37 37 38 39 39 40 41 42 43 44 45 46 47 47 48 49 50 50 50 50 50 50 51 51 51 51 50 49 50 50 50 50 50 49 49 49 48 47 45 44 44 44
37 37 38 38 39 40 41 42 43 44 45 45 46 47 48 49 49 49 49 49 49 49 49 50 50 51 50 49 49 49 49 49 48 48 48 48 47 46 45 43 42 42 42
Wind_Direction
240 240 242 247 255 260 263 266 273 280 282 284 288 293 301 308 313 318 321 322 323 323 323 324 324 323 321 317 315 312 309 306 303 301 297 292 289 286 283 281 280 278 276
242 241 241 247 255 258 261 267 272 274 278 281 285 291 297 302 307 311 314 315 316 317 317 317 317 316 315 314 312 310 308 306 304 301 298 294 291 288 287 284 283 280 278
242 243 247 253 258 260 263 268 270 270 274 278 283 287 293 298 302 306 308 310 311 312 313 313 313 312 312 311 310 308 306 304 302 300 298 295 293 291 288 286 283 282 280
243 244 250 257 260 261 265 268 269 270 273 277 281 285 291 296 300 303 305 307 309 309 310 311 311 310 309 308 307 306 305 303 301 299 296 294 292 291 289 287 284 282 281
246 246 253 262 264 264 264 265 267 269 271 276 280 285 290 295 299 302 305 306 307 307 308 309 309 308 308 307 306 304 303 301 300 298 296 294 293 292 290 288 286 284 283
248 251 256 264 266 265 264 262 265 269 273 278 282 287 292 295 299 301 304 304 305 306 307 307 307 307 307 307 306 304 302 301 299 298 297 296 294 293 291 289 288 286 285
252 254 259 264 265 265 264 263 266 272 276 280 284 288 292 296 298 301 302 303 304 305 306 306 306 306 306 306 305 304 302 301 300 299 298 296 295 294 292 291 289 288 286
255 256 258 259 261 266 269 268 270 275 279 283 287 290 293 296 298 300 301 303 305 305 305 306 306 306 305 304 303 302 301 300 299 299 298 297 295 294 292 291 289 288 287
255 256 255 258 262 267 271 272 275 278 281 286 290 292 295 297 299 301 302 303 304 305 305 306 305 305 304 303 302 301 300 299 298 298 297 297 296 295 294 292 290 289 288
255 256 257 262 266 269 272 276 279 282 285 288 291 294 295 297 299 300 301 302 303 304 305 305 305 304 303 302 301 300 299 298 298 298 297 297 296 295 295 293 292 290 289
255 259 259 263 267 271 275 278 281 284 287 290 293 295 296 298 300 301 302 302 303 303 304 304 304 303 302 301 300 299 298 297 298 298 298 297 297 296 295 294 293 292 291
259 261 262 266 269 273 276 280 283 287 289 292 294 295 297 298 301 302 302 303 303 303 304 304 303 303 303 302 302 301 300 299 298 298 298 298 297 296 295 295 294 293 292
261 262 264 267 270 274 278 282 286 289 291 292 295 296 298 300 301 302 302 303 303 303 303 304 304 304 304 304 303 302 301 300 300 299 299 298 298 296 294 294 293 293 293
260 263 266 270 274 277 281 286 288 290 291 293 296 297 298 299 301 302 302 302 302 302 303 303 303 304 304 304 303 302 301 301 301 300 300 299 298 297 295 294 293 293 293
263 265 270 273 276 280 284 287 290 292 294 295 296 298 299 301 302 302 302 302 302 302 302 302 302 303 304 303 303 302 302 302 302 301 301 300 299 297 296 295 294 293 293
268 269 271 275 279 282 285 288 290 292 295 296 298 300 300 301 301 302 302 302 302 303 303 303 303 303 303 303 303 302 302 302 302 301 301 300 300 298 297 296 296 295 294
271 272 273 276 280 283 286 288 291 293 296 298 299 300 301 302 302 302 302 302 303 304 304 304 304 304 304 304 303 303 303 302 302 302 301 300 300 300 299 298 297 296 295
274 276 277 280 283 285 288 290 292 294 296 298 299 300 301 301 302 302 302 303 304 304 304 304 304 304 304 304 304 304 303 303 303 302 302 301 301 301 300 300 299 298 297
276 278 280 282 284 286 289 291 293 295 297 298 299 300 301 301 302 302 303 304 305 305 305 305 305 305 305 305 305 304 304 304 304 303 303 302 302 302 302 301 301 300 299
278 280 282 283 285 287 290 292 294 296 297 298 299 300 301 301 302 303 304 305 305 305 305 305 306 305 305 305 305 305 305 305 305 304 304 303 303 303 302 302 302 301 300
279 280 283 285 287 288 290 292 293 294 296 297 299 300 301 301 302 303 304 305 305 305 306 306 306 306 306 306 306 306 306 306 306 305 305 305 305 304 304 303 302 302 301
280 282 285 286 288 289 290 291 292 294 295 296 298 299 300 301 302 303 305 305 305 306 306 306 307 306 306 307 307 307 307 307 307 306 306 306 306 306 305 305 304 303 302
282 284 286 287 288 289 290 292 293 294 295 296 297 299 299 300 302 304 304 305 305 306 306 307 307 307 307 308 308 308 308 308 308 308 307 307 307 307 306 306 306 304 303
285 286 287 288 289 290 291 292 293 295 296 297 298 299 300 301 302 304 304 305 306 306 307 307 308 308 308 309 309 309 309 309 309 309 308 308 308 308 307 307 306 305 305
285 287 289 290 290 291 292 293 294 295 296 297 298 299 300 302 303 303 304 305 306 306 307 307 308 308 308 308 308 309 309 309 310 310 310 310 310 310 309 308 306 306 305
286 288 289 290 291 292 292 294 294 295 297 298 299 299 300 301 303 304 305 305 305 306 306 307 308 309 309 308 309 309 310 310 310 310 311 311 311 310 309 308 307 307 307
Height
5864 5864 5865 5866 5866 5866 5866 5866 5866 5866 5866 5866 5865 5865 5864 5864 5863 5862 5861 5860 5859 5857 5856 5854 5853 5851 5850 5848 5846 5845 5843 5842 5840 5839 5837 5836 5835 5834 5833 5832 5831 5830 5830
5861 5862 5862 5863 5863 5864 5864 5864 5864 5863 5863 5863 5863 5863 5862 5861 5861 5860 5859 5857 5856 5855 5853 5851 5850 5848 5846 5845 5843 5841 5839 5838 5836 5834 5833 5831 5830 5829 5827 5826 5825 5824 5823
5858 5859 5860 5860 5861 5861 5861 5861 5861 5860 5860 5860 5860 5860 5859 5859 5858 5857 5856 5854 5853 5851 5850 5848 5846 5844 5842 5840 5839 5837 5835 5833 5831 5829 5828 5826 5824 5822 5821 5819 5818 5817 5815
5856 5856 5857 5857 5857 5857 5857 5857 5857 5857 5857 5857 5857 5857 5856 5856 5855 5853 5852 5851 5849 5847 5846 5844 5842 5840 5838 5836 5834 5832 5829 5827 5825 5823 5821 5819 5817 5815 5813 5812 5810 5808 5807
5852 5853 5853 5853 5853 5853 5853 5853 5854 5854 5854 5854 5854 5853 5853 5852 5851 5850 5848 5847 5845 5843 5841 5839 5837 5835 5833 5831 5828 5826 5823 5821 5819 5817 5814 5812 5810 5807 5805 5803 5802 5800 5798
5849 5850 5850 5849 5849 5849 5849 5849 5850 5850 5850 5850 5850 5849 5849 5848 5847 5845 5844 5842 5840 5838 5836 5834 5832 5830 5827 5824 5822 5819 5817 5814 5811 5809 5806 5804 5801 5799 5796 5794 5792 5791 5789
5846 5846 5846 5846 5846 5845 5845 5846 5847 5847 5847 5846 5846 5845 5845 5843 5842 5841 5839 5837 5835 5833 5831 5829 5826 5824 5821 5818 5815 5812 5809 5806 5803 5801 5798 5795 5793 5790 5787 5785 5782 5780 5778
5843 5843 5843 5843 5843 5843 5843 5843 5843 5843 5843 5843 5842 5841 5840 5839 5837 5836 5834 5832 5829 5827 5825 5822 5820 5817 5814 5811 5808 5805 5801 5798 5795 5792 5789 5786 5783 5780 5777 5774 5772 5769 5767
5839 5839 5840 5840 5840 5840 5840 5840 5840 5839 5839 5838 5838 5837 5835 5834 5832 5830 5828 5826 5823 5820 5818 5815 5812 5809 5806 5803 5800 5797 5793 5790 5786 5782 5779 5776 5772 5769 5766 5763 5760 5757 5755
5836 5836 5836 5836 5836 5836 5836 5836 5836 5835 5835 5834 5833 5831 5830 5828 5826 5824 5821 5819 5817 5814 5811 5808 5804 5801 5797 5793 5790 5787 5783 5780 5776 5772 5769 5765 5761 5758 5754 5750 5747 5744 5742
5832 5832 5832 5833 5833 5832 5832 5832 5831 5830 5830 5828 5827 5826 5824 5822 5819 5817 5814 5812 5809 5806 5803 5799 5796 5792 5788 5784 5780 5776 5772 5768 5765 5761 5757 5753 5749 5745 5741 5737 5733 5730 5727
5828 5828 5828 5828 5828 5828 5827 5827 5826 5825 5824 5823 5821 5819 5817 5815 5812 5809 5806 5803 5800 5797 5793 5790 5786 5782 5777 5773 5769 5765 5760 5756 5753 5749 5745 5741 5736 5732 5728 5724 5720 5716 5712
5823 5823 5824 5823 5823 5823 5822 5821 5820 5819 5818 5816 5815 5812 5810 5807 5804 5801 5798 5794 5791 5787 5783 5779 5775 5771 5766 5762 5757 5753 5748 5744 5740 5736 5732 5727 5723 5718 5714 5710 5706 5701 5697
5818 5818 5818 5818 5818 5817 5816 5815 5814 5813 5811 5809 5807 5805 5802 5799 5796 5792 5789 5785 5781 5777 5773 5769 5765 5760 5756 5751 5746 5741 5736 5731 5727 5722 5718 5713 5708 5703 5699 5694 5690 5686 5682
5813 5813 5813 5813 5812 5811 5810 5809 5808 5806 5804 5802 5799 5796 5793 5790 5786 5783 5779 5775 5771 5767 5763 5759 5754 5749 5744 5739 5734 5729 5723 5718 5713 5708 5703 5698 5693 5688 5683 5678 5673 5669 5665
5807 5807 5807 5807 5806 5805 5804 5802 5800 5798 5796 5793 5790 5787 5784 5780 5776 5772 5768 5764 5760 5756 5751 5747 5742 5737 5732 5726 5721 5716 5710 5704 5699 5693 5688 5682 5677 5672 5667 5662 5656 5651 5647
5801 5801 5800 5800 5799 5798 5796 5794 5792 5790 5787 5784 5781 5778 5774 5770 5766 5762 5758 5753 5749 5744 5739 5734 5729 5724 5718 5713 5707 5702 5696 5690 5684 5678 5673 5667 5661 5656 5650 5645 5639 5634 5629
5794 5794 5793 5792 5791 5790 5788 5786 5784 5781 5778 5775 5771 5768 5764 5760 5756 5751 5747 5742 5737 5732 5727 5721 5716 5711 5705 5699 5693 5688 5682 5676 5669 5663 5657 5651 5645 5640 5634 5628 5622 5616 5611
5787 5786 5786 5785 5783 5782 5780 5777 5775 5772 5769 5765 5761 5757 5753 5749 5744 5740 5735 5730 5725 5720 5714 5708 5703 5697 5691 5685 5679 5673 5667 5661 5655 5648 5642 5636 5630 5624 5618 5612 5606 5599 5593
5779 5778 5777 5776 5774 5773 5770 5768 5765 5762 5758 5754 5751 5747 5742 5738 5733 5728 5723 5718 5713 5707 5701 5695 5689 5683 5677 5671 5665 5658 5652 5646 5640 5633 5627 5621 5614 5608 5602 5596 5589 5583 5576
5771 5770 5768 5767 5765 5763 5760 5757 5754 5751 5747 5744 5740 5735 5731 5726 5721 5716 5711 5706 5700 5694 5688 5682 5676 5669 5663 5657 5650 5644 5638 5632 5625 5618 5612 5606 5599 5592 5586 5579 5573 5566 5560
5762 5760 5759 5757 5755 5752 5749 5746 5743 5740 5736 5732 5728 5724 5719 5714 5710 5704 5699 5693 5687 5681 5674 5668 5662 5655 5649 5643 5636 5630 5623 5617 5610 5604 5598 5591 5584 5578 5571 5564 5558 5551 5545
5752 5751 5749 5746 5744 5741 5738 5735 5732 5728 5724 5720 5716 5712 5707 5702 5697 5692 5686 5680 5674 5667 5661 5654 5648 5642 5635 5629 5622 5616 5609 5603 5596 5590 5583 5577 5570 5563 5557 5550 5544 5538 5532
5742 5740 5738 5735 5733 5730 5727 5723 5720 5716 5713 5708 5704 5700 5695 5690 5684 5679 5673 5667 5661 5654 5648 5641 5635 5629 5622 5616 5609 5602 5596 5589 5582 5576 5569 5563 5556 5549 5543 5536 5531 5525 5519
5731 5729 5727 5724 5721 5718 5715 5712 5708 5704 5701 5696 5692 5687 5682 5677 5672 5666 5660 5654 5648 5642 5635 5629 5622 5616 5610 5603 5596 5590 5583 5576 5569 5563 5556 5550 5543 5536 5530 5524 5519 5513 5507
5720 5718 5715 5713 5710 5707 5703 5700 5696 5692 5688 5684 5679 5674 5669 5664 5659 5653 5647 5641 5635 5629 5623 5616 5610 5603 5597 5590 5584 5577 5571 5564 5557 5551 5544 5538 5531 5525 5519 5513 5507 5502 5496